Regional Weather Roundup
Issued by NWS Upton, NY

Current Version | Previous Version | Text Only | Print | Product List | Glossary Off
Versions: 1 2 3 4 5 6 7 8 9 10 11 12 13 14 15 16 17 18 19 20 21 22 23 24 25 26 27 28 29 30 31 32 33 34 35 36 37 38 39 40 41 42 43 44 45 46 47 48 49 50
000 ASUS41 KOKX 282107 RWROKX REGIONAL WEATHER ROUNDUP NATIONAL WEATHER SERVICE NEW YORK NY 500 PM EDT SAT MAR 28 2015 NOTE: "FAIR" INDICATES FEW OR NO CLOUDS BELOW 12,000 FEET WITH NO SIGNIFICANT WEATHER AND/OR OBSTRUCTIONS TO VISIBILITY. NYZ071-072-176-178-NJZ106-104-282200- NEW YORK CITY METRO AREA CITY SKY/WX TMP DP RH WIND PRES REMARKS CENTRAL PARK CLOUDY 39 22 50 CALM 29.89R LAGUARDIA APRT PTSUNNY 38 22 52 N13 29.87R WCI 30 KENNEDY INTL PTSUNNY 40 23 50 N14 29.87R WCI 32 NEWARK/LIBERTY PTSUNNY 43 15 32 W18G25 29.87R BRNX BOT. GARD N/A N/A N/A N/A N8 29.87R TETERBORO CLOUDY 39 18 42 NW14 29.87R WCI 31 $$ NYZ177-179-078>081-282200- LONG ISLAND NEW YORK CITY SKY/WX TMP DP RH WIND PRES REMARKS FARMINGDALE CLOUDY 34 27 75 NW10 29.87R WCI 26 ISLIP LGT SNOW 32 27 81 NW16G24 29.84R WCI 21 SHIRLEY LGT SNOW 31 27 85 NW16G25 29.86R FOG WCI 20 WESTHAMPTON LGT SNOW 32 28 85 NW15G22 29.85R FOG WCI 22 MONTAUK POINT N/A 35 33 92 NW7 29.81R WCI 29 $$ NYZ052-065-067-282200- HUDSON VALLEY CITY SKY/WX TMP DP RH WIND PRES REMARKS WHITE PLAINS LGT SNOW 32 23 69 N13 29.85R WCI 22 NEWBURGH CLOUDY 34 23 64 N9 29.88R WCI 26 MONTGOMERY CLOUDY 32 18 56 NW12 29.88R WCI 23 POUGHKEEPSIE CLOUDY 33 20 58 N14 29.89R WCI 23 ALBANY FLURRIES 30 20 66 NW13 29.92R WCI 20 $$ NJZ001-105-106-008-010-013-015-019>022-104-282200- NEW JERSEY CITY SKY/WX TMP DP RH WIND PRES REMARKS NEWARK/LIBERTY PTSUNNY 43 15 32 W18G25 29.87R TETERBORO CLOUDY 39 18 42 NW14 29.87R WCI 31 CALDWELL MOSUNNY 39 14 36 NW10 29.88R WCI 32 MORRISTOWN MOSUNNY 37 14 38 N14G21 29.90R WCI 29 SOMERVILLE PTSUNNY 38 13 35 NW12 29.88R WCI 30 SUSSEX PTSUNNY 33 13 43 W12G21 29.90R WCI 24 ANDOVER N/A 32 12 43 NW13G21 29.90R WCI 22 TRENTON CLOUDY 38 13 35 NW15G21 29.90R WCI 29 MILLVILLE CLOUDY 37 19 48 NW13 29.94R WCI 29 ATLANTIC CITY CLOUDY 39 18 42 NW18 29.90R WCI 30 WRIGHTSTOWN PTSUNNY 38 18 43 NW16 29.88R WCI 29 TOMS RIVER CLOUDY 39 18 41 NW15G28 29.88R WCI 31 BELMAR CLOUDY 39 16 38 W13G23 29.86R WCI 32 $$ PAZ047>061-062-071-282200- EASTERN PENNSYLVANIA CITY SKY/WX TMP DP RH WIND PRES REMARKS PHILADELPHIA CLOUDY 39 10 30 NW17G28 29.94R WCI 30 ALLENTOWN MOSUNNY 34 13 41 NW17G24 29.95R WCI 23 SCRANTON CLOUDY 26 8 46 NW16G24 29.96R WCI 14 $$ CTZ002-004>006-009-010-012-RIZ004-006-007-MAZ004-011-015-282200- SOUTHERN NEW ENGLAND IN CT CITY SKY/WX TMP DP RH WIND PRES REMARKS BRADLEY INTL LGT SNOW 33 29 85 NW8 29.83R FOG WCI 26 HARTFORD LGT SNOW 32 29 88 NW8 29.85R VSB 1 WCI 25 DANBURY CLOUDY 30 20 66 N12G17 29.88R HAZE WCI 20 WTRBRY/OXFORD CLOUDY 28 18 64 NW12G20 29.84R WCI 18 BRIDGEPORT LGT SNOW 32 26 78 NW18 29.86R WCI 20 MERIDEN LGT SNOW 31 26 82 NW13 29.85R WCI 21 NEW HAVEN LGT SNOW 32 28 85 NW9 29.84R FOG WCI 24 CHESTER LGT SNOW 32 32 100 NW7 29.80R VSB 3/4 WCI 26 GROTON LGT SNOW 35 33 92 NW9 29.80R FOG WCI 28 WILLIMANTIC LGT SNOW 34 30 85 NW7 29.81R FOG WCI 28 IN RI CITY SKY/WX TMP DP RH WIND PRES REMARKS PROVIDENCE LGT SNOW 35 31 85 N13G18 29.80R FOG WCI 26 BLOCK ISLAND CLOUDY 36 30 80 N9 29.79R WCI 29 WESTERLY FLURRIES 36 32 85 N7 29.80R WCI 30 IN MA CITY SKY/WX TMP DP RH WIND PRES REMARKS BOSTON LGT SNOW 34 32 92 N12G20 29.80R FOG WCI 25 WORCESTER LGT SNOW 32 27 81 N8 29.76R WCI 25 WESTFIELD FLURRIES 33 27 78 NW8 29.83R WCI 26 PROVINCETOWN CLOUDY 34 30 86 N15G26 29.77R WCI 24 NANTUCKET CLOUDY 35 31 85 N23G30 29.74R WCI 23 $$ ANZ330-335-338-340-345-350-353-355-282200- COASTAL MARINE OBSERVATIONS STATION/POSITION TIME SKY/WX TEMP WIND PRES VSBY WAVE AIR SEA DIR/SP/G HT/PER (UTC) (F) (DEG/KT/KT) (MB) (MI) (FT/S) NY HARB ENTRANCE 2050 37 38 10/ 14/ 14 1010.7 3/11 4S FIRE IS 2003 36 N/A 4/12 20S FIRE ISLAND 1950 38 1010.5 6/11 23SW MTP 2050 N/A 5/11 HUDSON CANYON NOT AVBL EXECUTION ROCKS NOT AVBL WESTERN LI SOUND NOT AVBL CENTRAL LI SOUND NOT AVBL EASTERN LI SOUND NOT AVBL ROBBINS REEF 2000 38 360/ 14/ 17 1009.4 $$ >>>>>>>>>>>>>>>>>>>>>>>>>>>> KEY <<<<<<<<<<<<<<<<<<<<<<<<<<< > < > SKY/WX - SKY CONDITION/PRESENT WEATHER < > TMP - TEMPERATURE IN FAHRENHEIT < > DP - DEWPOINT IN FAHRENHEIT < > RH - RELATIVE HUMIDITY IN PERCENT < > WIND - DIRECTION AND SPEED IN MPH < > PRES - MEAN SEA LEVEL PRESSURE IN INCHES OF HG < > WCI - WIND CHILL INDEX < > VSB - VISIBILITY IN MILES < > HX - HEAT INDEX < > TC - TEMPERATURE IN CELSIUS < > VRB - VARIABLE WIND DIRECTION < > < >>>>>>>>>>>>>>>>>>>>>>>>>>>> KEY <<<<<<<<<<<<<<<<<<<<<<<<<<<

USA.gov is the U.S. government's official web portal to all federal, state and local government web resources and services.